Amsterdam, Netherlands

7:08 AM CET on December 16, 2017 (GMT +0100)
Schiphol

Weather History for EHAM - February, 2012

Change the Weather History Date:

Wednesday, February 22, 2012

  Actual Average Record
Temperature  
Mean Temperature 45 °F -  
Max Temperature 48 °F 47 °F 53 °F (2007)
Min Temperature 42 °F 35 °F 21 °F (2011)
Degree Days  
Heating Degree Days 20    
Moisture  
Dew Point 38 °F    
Average Humidity 78    
Maximum Humidity 100    
Minimum Humidity 49    
Precipitation  
Precipitation 0.08 in - - ()
Sea Level Pressure  
Sea Level Pressure 30.24 in    
Wind  
Wind Speed 15 mph ()    
Max Wind Speed 29 mph    
Max Gust Speed 40 mph    
Visibility 6.6 miles    
Events Rain    
Averages and records for this station are not official NWS values.
T = Trace of Precipitation, MM = Missing Value Source: Averaged Metar Reports

Daily Weather History Graph

Daily Weather History Graph

Search for Another Location

Airport or City:

Trip Planner

Search our weather history database for the weather conditions in past years. The results will help you decide how hot, cold, wet, or windy it might be!

Date:

Astronomy

Feb. 22, 2012 Rise Set
Actual Time 7:43 AM CET 6:06 PM CET
Civil Twilight 7:09 AM CET 6:40 PM CET
Nautical Twilight 6:29 AM CET 7:20 PM CET
Astronomical Twilight 5:50 AM CET 7:59 PM CET
Moon 7:24 AM CET (2/22) 7:11 PM CET (2/22)
Length of Visible Light 11h 31m
Length of Day
10h 22m
New Moon, 0% of the Moon is Illuminated
Feb 22
New Moon
Mar 1
First Quarter
Mar 8
Full
Mar 15
Last Quarter
Mar 22
New

Hourly Weather History & Observations

Time (CET) Temp. Windchill Dew Point Humidity Pressure Visibility Wind Dir Wind Speed Gust Speed Precip Events Conditions
12:25 AM 42.8 °F 36.2 °F 41.0 °F 93% 30.36 in 6.2 mi SW 12.7 mph - N/A   Scattered Clouds
12:55 AM 42.8 °F 37.0 °F 41.0 °F 93% 30.36 in 6.2 mi SW 10.4 mph - N/A   Overcast
1:00 AM 44 °F - 41 °F 84% 30.38 in 7 mi SSW 11.2 mph - -   Overcast
1:25 AM 42.8 °F 37.0 °F 41.0 °F 93% 30.36 in 6.2 mi SSW 10.4 mph - N/A   Mostly Cloudy
1:55 AM 42.8 °F 36.6 °F 41.0 °F 93% 30.36 in 6.2 mi SSW 11.5 mph - N/A   Mostly Cloudy
2:25 AM 42.8 °F 37.0 °F 41.0 °F 93% 30.36 in 6.2 mi SSW 10.4 mph - N/A   Overcast
2:55 AM 42.8 °F 37.0 °F 41.0 °F 93% 30.36 in 6.2 mi SSW 10.4 mph - N/A   Overcast
3:25 AM 44.6 °F 39.2 °F 41.0 °F 87% 30.36 in 6.2 mi SW 10.4 mph - N/A   Overcast
3:55 AM 44.6 °F 39.7 °F 41.0 °F 87% 30.33 in 6.2 mi SSW 9.2 mph - N/A   Overcast
4:00 AM 44 °F - 42 °F 88% 30.36 in 7 mi SSW 11.2 mph - -   Overcast
4:25 AM 44.6 °F 39.2 °F 41.0 °F 87% 30.33 in 6.2 mi SW 10.4 mph - N/A   Overcast
4:55 AM 44.6 °F 38.4 °F 41.0 °F 87% 30.33 in 6.2 mi SW 12.7 mph - N/A   Overcast
5:25 AM 44.6 °F 38.4 °F 41.0 °F 87% 30.33 in 6.2 mi SSW 12.7 mph - N/A   Overcast
5:55 AM 44.6 °F 38.4 °F 41.0 °F 87% 30.33 in 6.2 mi SSW 12.7 mph - N/A   Overcast
6:25 AM 44.6 °F 38.1 °F 41.0 °F 87% 30.33 in 6.2 mi SW 13.8 mph - N/A   Overcast
6:55 AM 44.6 °F 38.1 °F 41.0 °F 87% 30.33 in 6.2 mi SSW 13.8 mph - N/A   Overcast
7:00 AM 44 °F - 40 °F 82% 30.34 in 9 mi SSW 13.4 mph - -   Overcast
7:25 AM 44.6 °F 38.1 °F 39.2 °F 81% 30.33 in 6.2 mi SSW 13.8 mph - N/A   Overcast
7:55 AM 44.6 °F 38.1 °F 39.2 °F 81% 30.30 in 6.2 mi SSW 13.8 mph - N/A   Mostly Cloudy
8:25 AM 44.6 °F 37.8 °F 39.2 °F 81% 30.30 in 6.2 mi SSW 15.0 mph - N/A   Mostly Cloudy
8:55 AM 44.6 °F 37.8 °F 39.2 °F 81% 30.33 in 6.2 mi SW 15.0 mph - N/A   Scattered Clouds
9:25 AM 44.6 °F 36.6 °F 37.4 °F 76% 30.33 in 6.2 mi SW 19.6 mph - N/A   Partly Cloudy
9:55 AM 44.6 °F 37.8 °F 37.4 °F 76% 30.30 in 6.2 mi SSW 15.0 mph - N/A   Scattered Clouds
10:00 AM 45 °F - 37 °F 66% 30.33 in 16 mi SSW 15.7 mph - -  
10:25 AM 46.4 °F 39.8 °F 37.4 °F 71% 30.30 in 6.2 mi SSW 16.1 mph - N/A   Partly Cloudy
10:55 AM 46.4 °F 39.5 °F 37.4 °F 71% 30.30 in 6.2 mi SW 17.3 mph - N/A   Partly Cloudy
11:25 AM 46.4 °F 39.8 °F 37.4 °F 71% 30.30 in 6.2 mi SSW 16.1 mph - N/A   Partly Cloudy
11:55 AM 46.4 °F 39.2 °F 37.4 °F 71% 30.30 in 6.2 mi SSW 18.4 mph - N/A   Partly Cloudy
12:25 PM 48.2 °F - 35.6 °F 62% 30.27 in 6.2 mi SSW 18.4 mph - N/A   Partly Cloudy
12:55 PM 48.2 °F - 35.6 °F 62% 30.27 in 6.2 mi SW 20.7 mph - N/A   Partly Cloudy
1:00 PM 48 °F - 35 °F 49% 30.29 in 10 mi SSW 22.4 mph - -   Partly Cloudy
1:25 PM 48.2 °F - 33.8 °F 58% 30.27 in - SW 24.2 mph - N/A   Clear
1:55 PM 48.2 °F - 35.6 °F 62% 30.24 in - SSW 20.7 mph - N/A   Clear
2:25 PM 48.2 °F - 35.6 °F 62% 30.24 in 6.2 mi SW 24.2 mph - N/A   Partly Cloudy
2:55 PM 48.2 °F - 35.6 °F 62% 30.21 in 6.2 mi SW 25.3 mph - N/A   Partly Cloudy
3:25 PM 46.4 °F 37.9 °F 33.8 °F 62% 30.21 in - SW 25.3 mph - N/A   Clear
3:55 PM 46.4 °F 38.3 °F 35.6 °F 66% 30.18 in - SSW 23.0 mph - N/A   Clear
4:00 PM 46 °F - 35 °F 53% 30.20 in 17 mi SSW 24.6 mph - -   Mostly Cloudy
4:25 PM 46.4 °F 38.1 °F 33.8 °F 62% 30.18 in - SSW 24.2 mph - N/A   Clear
4:55 PM 46.4 °F 37.9 °F 33.8 °F 62% 30.15 in - SSW 25.3 mph - N/A   Clear
5:25 PM 46.4 °F 38.3 °F 33.8 °F 62% 30.15 in - SSW 23.0 mph - N/A   Clear
5:55 PM 44.6 °F 35.7 °F 33.8 °F 66% 30.12 in 6.2 mi SSW 24.2 mph - N/A   Partly Cloudy
6:25 PM 44.6 °F 35.3 °F 33.8 °F 66% 30.12 in 6.2 mi SSW 26.5 mph - N/A   Mostly Cloudy
6:55 PM 44.6 °F 35.5 °F 33.8 °F 66% 30.12 in 6.2 mi SW 25.3 mph - N/A Rain Light Rain
7:00 PM 44 °F - 35 °F 61% 30.13 in 11 mi SW 24.6 mph - - Rain Drizzle
7:25 PM 44.6 °F 35.3 °F 35.6 °F 71% 30.09 in 6.2 mi SW 26.5 mph - N/A Rain Light Rain
7:55 PM 42.8 °F 32.7 °F 37.4 °F 81% 30.09 in 6.2 mi SW 27.6 mph - N/A Rain Light Rain
8:25 PM 42.8 °F 33.1 °F 39.2 °F 87% 30.09 in 3.1 mi SW 25.3 mph - N/A   Drizzle
8:55 PM 42.8 °F 33.5 °F 41.0 °F 93% 30.06 in 3.1 mi SSW 23.0 mph - N/A   Light Drizzle
9:25 PM 42.8 °F 33.3 °F 41.0 °F 93% 30.06 in 6.2 mi SW 24.2 mph - N/A   Light Drizzle
9:55 PM 42.8 °F 32.9 °F 41.0 °F 93% 30.04 in 5.6 mi SW 26.5 mph 38.0 mph N/A Rain Light Rain
10:00 PM 44 °F - 42 °F 89% 30.06 in 4 mi SW 24.6 mph - - Rain Drizzle
10:25 PM 42.8 °F 33.1 °F 41.0 °F 93% 30.04 in 4.3 mi SW 25.3 mph - N/A Rain Rain
10:55 PM 42.8 °F 33.3 °F 42.8 °F 100% 30.04 in 5.0 mi SW 24.2 mph 35.7 mph N/A Rain Light Rain
11:25 PM 44.6 °F 35.1 °F 42.8 °F 93% 30.04 in 6.2 mi SW 27.6 mph - N/A   Overcast
11:55 PM 44.6 °F 34.9 °F 42.8 °F 93% 30.04 in 5.6 mi WSW 28.8 mph 40.3 mph N/A   Overcast